Time,TemperatureF,DewpointF,PressureIn,WindDirection,WindDirectionDegrees,WindSpeedMPH,WindSpeedGustMPH,Humidity,HourlyPrecipIn,Conditions,Clouds,dailyrainin,SoftwareType,DateUTC
2013-03-16 00:03:00,49.9,0.0,30.22,South,185,2.0,2.0,0,0.00,,CLR,0.00,VWS V13.01,2013-03-16 07:03:00,
2013-03-16 00:08:00,49.8,0.0,30.22,SE,132,2.0,3.0,0,0.00,,CLR,0.00,VWS V13.01,2013-03-16 07:08:00,
2013-03-16 00:13:00,49.7,0.0,30.22,SSE,167,3.0,3.0,0,0.00,,CLR,0.00,VWS V13.01,2013-03-16 07:13:00,
2013-03-16 00:18:00,49.6,0.0,30.22,SE,133,1.0,4.0,0,0.00,,CLR,0.00,VWS V13.01,2013-03-16 07:18:00,
2013-03-16 00:24:00,49.5,0.0,30.22,South,178,0.0,5.0,0,0.00,,CLR,0.00,VWS V13.01,2013-03-16 07:24:00,
2013-03-16 00:29:00,49.5,0.0,30.22,SSE,152,1.0,5.0,0,0.00,,CLR,0.00,VWS V13.01,2013-03-16 07:29:00,
2013-03-16 00:34:00,49.4,0.0,30.22,SSE,151,3.0,5.0,0,0.00,,CLR,0.00,VWS V13.01,2013-03-16 07:34:00,
2013-03-16 00:39:00,49.3,0.0,30.22,SSE,160,0.0,5.0,0,0.00,,CLR,0.00,VWS V13.01,2013-03-16 07:39:00,
2013-03-16 00:44:00,49.3,0.0,30.22,SSE,165,0.0,5.0,0,0.00,,CLR,0.00,VWS V13.01,2013-03-16 07:44:00,
2013-03-16 00:49:00,49.3,0.0,30.22,SSW,198,3.0,4.0,0,0.00,,CLR,0.00,VWS V13.01,2013-03-16 07:49:00,
2013-03-16 00:54:00,49.3,0.0,30.22,SSE,160,0.0,4.0,0,0.00,,BKN027,0.00,VWS V13.01,2013-03-16 07:54:00,
2013-03-16 00:59:00,49.3,0.0,30.22,SSE,160,0.0,0.0,0,0.00,,BKN027,0.00,VWS V13.01,2013-03-16 07:59:00,
2013-03-16 01:04:00,49.2,0.0,30.22,South,178,1.0,3.0,0,0.00,,BKN027,0.00,VWS V13.01,2013-03-16 08:04:00,
2013-03-16 01:09:00,49.3,0.0,30.22,South,173,2.0,3.0,0,0.00,,BKN027,0.00,VWS V13.01,2013-03-16 08:09:00,
2013-03-16 01:14:00,49.2,0.0,30.22,SSW,196,2.0,3.0,0,0.00,,BKN027,0.00,VWS V13.01,2013-03-16 08:14:00,
2013-03-16 01:19:00,49.2,0.0,30.22,SSE,167,4.0,4.0,0,0.00,,BKN027,0.00,VWS V13.01,2013-03-16 08:19:00,
2013-03-16 01:24:00,49.2,0.0,30.22,South,176,0.0,4.0,0,0.00,,BKN027,0.00,VWS V13.01,2013-03-16 08:24:00,
2013-03-16 01:29:00,49.1,0.0,30.22,South,176,1.0,2.0,0,0.00,,BKN027,0.00,VWS V13.01,2013-03-16 08:29:00,
2013-03-16 01:34:00,49.1,0.0,30.22,South,176,1.0,2.0,0,0.00,,OVC022,0.00,VWS V13.01,2013-03-16 08:34:00,
2013-03-16 01:40:00,49.0,0.0,30.23,South,176,0.0,2.0,0,0.00,,OVC022,0.00,VWS V13.01,2013-03-16 08:40:00,
2013-03-16 01:45:00,49.0,0.0,30.23,South,176,0.0,0.0,0,0.00,,OVC022,0.00,VWS V13.01,2013-03-16 08:45:00,
2013-03-16 01:50:00,49.0,0.0,30.23,South,176,2.0,2.0,0,0.00,,OVC022,0.00,VWS V13.01,2013-03-16 08:50:00,
2013-03-16 01:55:00,49.0,0.0,30.23,South,181,0.0,3.0,0,0.00,,BKN034,0.00,VWS V13.01,2013-03-16 08:55:00,
2013-03-16 02:00:00,49.0,0.0,30.23,South,181,0.0,0.0,0,0.00,,BKN034,0.00,VWS V13.01,2013-03-16 09:00:00,
2013-03-16 02:05:00,48.9,0.0,30.23,South,181,0.0,0.0,0,0.00,,BKN034,0.00,VWS V13.01,2013-03-16 09:05:00,
2013-03-16 02:10:00,48.9,0.0,30.23,South,181,1.0,3.0,0,0.00,,BKN034,0.00,VWS V13.01,2013-03-16 09:10:00,
2013-03-16 02:15:00,48.8,0.0,30.24,South,181,0.0,1.0,0,0.00,,BKN034,0.00,VWS V13.01,2013-03-16 09:15:00,
2013-03-16 02:20:00,48.8,0.0,30.23,South,181,0.0,1.0,0,0.00,,BKN034,0.00,VWS V13.01,2013-03-16 09:20:00,
2013-03-16 02:25:00,48.8,0.0,30.23,South,181,0.0,1.0,0,0.00,,BKN034,0.00,VWS V13.01,2013-03-16 09:25:00,
2013-03-16 02:30:00,48.7,0.0,30.23,South,181,0.0,0.0,0,0.00,,BKN034,0.00,VWS V13.01,2013-03-16 09:30:00,
2013-03-16 02:35:00,48.7,0.0,30.22,South,181,0.0,0.0,0,0.00,,OVC036,0.00,VWS V13.01,2013-03-16 09:35:00,
2013-03-16 02:40:00,48.7,0.0,30.22,South,181,0.0,0.0,0,0.00,,OVC036,0.00,VWS V13.01,2013-03-16 09:40:00,
2013-03-16 02:45:00,48.7,0.0,30.23,South,181,0.0,0.0,0,0.00,,OVC036,0.00,VWS V13.01,2013-03-16 09:45:00,
2013-03-16 02:50:00,48.6,0.0,30.23,South,181,0.0,0.0,0,0.00,,OVC036,0.00,VWS V13.01,2013-03-16 09:50:00,
2013-03-16 02:56:00,48.6,0.0,30.22,South,181,0.0,0.0,0,0.00,,OVC036,0.00,VWS V13.01,2013-03-16 09:56:00,
2013-03-16 03:01:00,48.6,0.0,30.23,South,181,0.0,0.0,0,0.00,,OVC036,0.00,VWS V13.01,2013-03-16 10:01:00,
2013-03-16 03:06:00,48.5,0.0,30.22,South,181,0.0,1.0,0,0.00,,OVC036,0.00,VWS V13.01,2013-03-16 10:06:00,
2013-03-16 03:11:00,48.5,0.0,30.22,South,181,0.0,1.0,0,0.00,,OVC036,0.00,VWS V13.01,2013-03-16 10:11:00,
2013-03-16 03:16:00,48.5,0.0,30.22,South,181,0.0,0.0,0,0.00,,OVC036,0.00,VWS V13.01,2013-03-16 10:16:00,
2013-03-16 03:21:00,48.5,0.0,30.22,South,181,0.0,0.0,0,0.00,,OVC036,0.00,VWS V13.01,2013-03-16 10:21:00,
2013-03-16 03:26:00,48.4,0.0,30.22,South,181,0.0,0.0,0,0.00,,OVC036,0.00,VWS V13.01,2013-03-16 10:26:00,
2013-03-16 03:31:00,48.4,0.0,30.22,South,181,0.0,0.0,0,0.00,,OVC036,0.00,VWS V13.01,2013-03-16 10:31:00,
2013-03-16 03:36:00,48.3,0.0,30.22,South,181,0.0,0.0,0,0.00,,OVC036,0.00,VWS V13.01,2013-03-16 10:36:00,
2013-03-16 03:42:00,48.3,0.0,30.22,South,181,0.0,0.0,0,0.00,,OVC055,0.00,VWS V13.01,2013-03-16 10:42:00,
2013-03-16 03:47:00,48.2,0.0,30.22,South,181,0.0,0.0,0,0.00,,OVC055,0.00,VWS V13.01,2013-03-16 10:47:00,
2013-03-16 03:52:00,48.1,0.0,30.22,South,181,0.0,0.0,0,0.00,,OVC055,0.00,VWS V13.01,2013-03-16 10:52:00,
2013-03-16 03:57:00,48.1,0.0,30.22,South,181,0.0,1.0,0,0.00,,OVC055,0.00,VWS V13.01,2013-03-16 10:57:00,
2013-03-16 04:02:00,48.1,0.0,30.22,South,181,0.0,0.0,0,0.00,,OVC055,0.00,VWS V13.01,2013-03-16 11:02:00,
2013-03-16 04:07:00,48.1,0.0,30.22,South,181,0.0,0.0,0,0.00,,OVC055,0.00,VWS V13.01,2013-03-16 11:07:00,
2013-03-16 04:12:00,48.1,0.0,30.22,South,181,0.0,0.0,0,0.00,,OVC055,0.00,VWS V13.01,2013-03-16 11:12:00,
2013-03-16 04:17:00,48.1,0.0,30.22,South,181,0.0,0.0,0,0.01,,OVC055,0.01,VWS V13.01,2013-03-16 11:17:00,
2013-03-16 04:22:00,48.1,0.0,30.21,South,181,0.0,0.0,0,0.01,,OVC055,0.01,VWS V13.01,2013-03-16 11:22:00,
2013-03-16 04:27:00,48.1,0.0,30.21,South,181,0.0,0.0,0,0.01,,OVC055,0.01,VWS V13.01,2013-03-16 11:27:00,
2013-03-16 04:32:00,48.1,0.0,30.21,South,181,0.0,0.0,0,0.01,,OVC050,0.01,VWS V13.01,2013-03-16 11:32:00,
2013-03-16 04:37:00,48.0,0.0,30.21,South,181,0.0,0.0,0,0.01,,OVC050,0.01,VWS V13.01,2013-03-16 11:37:00,
2013-03-16 04:42:00,48.1,0.0,30.21,South,181,0.0,0.0,0,0.01,,OVC050,0.01,VWS V13.01,2013-03-16 11:42:00,
2013-03-16 04:47:00,48.1,0.0,30.21,South,181,0.0,0.0,0,0.01,,OVC050,0.01,VWS V13.01,2013-03-16 11:47:00,
2013-03-16 04:52:00,48.0,0.0,30.21,South,181,0.0,0.0,0,0.01,,OVC050,0.01,VWS V13.01,2013-03-16 11:52:00,
2013-03-16 04:57:00,48.0,0.0,30.21,South,181,0.0,0.0,0,0.01,,OVC050,0.01,VWS V13.01,2013-03-16 11:57:00,
2013-03-16 05:02:00,48.0,0.0,30.20,South,181,0.0,0.0,0,0.01,,OVC050,0.01,VWS V13.01,2013-03-16 12:02:00,
2013-03-16 05:07:00,48.0,0.0,30.20,South,181,0.0,0.0,0,0.01,,OVC050,0.01,VWS V13.01,2013-03-16 12:07:00,
2013-03-16 05:13:00,48.0,0.0,30.20,South,181,0.0,0.0,0,0.01,,OVC050,0.01,VWS V13.01,2013-03-16 12:13:00,
2013-03-16 05:18:00,48.0,0.0,30.20,South,181,0.0,0.0,0,0.00,,OVC050,0.01,VWS V13.01,2013-03-16 12:18:00,
2013-03-16 05:23:00,47.9,0.0,30.20,South,181,0.0,0.0,0,0.00,,OVC050,0.01,VWS V13.01,2013-03-16 12:23:00,
2013-03-16 05:28:00,47.9,0.0,30.20,South,181,0.0,0.0,0,0.01,,OVC050,0.02,VWS V13.01,2013-03-16 12:28:00,
2013-03-16 05:33:00,47.9,0.0,30.20,South,181,0.0,0.0,0,0.01,,OVC050,0.02,VWS V13.01,2013-03-16 12:33:00,
2013-03-16 05:38:00,47.9,0.0,30.19,South,181,0.0,0.0,0,0.01,,OVC050,0.02,VWS V13.01,2013-03-16 12:38:00,
2013-03-16 05:43:00,47.9,0.0,30.19,South,181,0.0,0.0,0,0.01,,OVC050,0.02,VWS V13.01,2013-03-16 12:43:00,
2013-03-16 05:48:00,47.9,0.0,30.19,South,181,0.0,0.0,0,0.01,,OVC050,0.02,VWS V13.01,2013-03-16 12:48:00,
2013-03-16 05:53:00,47.8,0.0,30.19,South,181,0.0,0.0,0,0.01,,OVC050,0.02,VWS V13.01,2013-03-16 12:53:00,
2013-03-16 05:58:00,47.8,0.0,30.19,South,181,0.0,0.0,0,0.01,,OVC050,0.02,VWS V13.01,2013-03-16 12:58:00,
2013-03-16 06:03:00,47.7,0.0,30.19,South,181,0.0,0.0,0,0.01,,OVC050,0.02,VWS V13.01,2013-03-16 13:03:00,
2013-03-16 06:08:00,47.7,0.0,30.18,South,181,0.0,0.0,0,0.01,,OVC050,0.02,VWS V13.01,2013-03-16 13:08:00,
2013-03-16 06:13:00,47.6,0.0,30.18,South,181,0.0,0.0,0,0.01,,OVC050,0.02,VWS V13.01,2013-03-16 13:13:00,
2013-03-16 06:18:00,47.6,0.0,30.18,South,181,0.0,0.0,0,0.01,,OVC050,0.02,VWS V13.01,2013-03-16 13:18:00,
2013-03-16 06:23:00,47.6,0.0,30.18,South,181,0.0,0.0,0,0.01,,OVC050,0.02,VWS V13.01,2013-03-16 13:23:00,
2013-03-16 06:29:00,47.5,0.0,30.17,South,181,0.0,0.0,0,0.01,,OVC050,0.02,VWS V13.01,2013-03-16 13:29:00,
2013-03-16 06:34:00,47.5,0.0,30.17,South,181,0.0,0.0,0,0.00,,OVC160,0.02,VWS V13.01,2013-03-16 13:34:00,
2013-03-16 06:39:00,47.5,0.0,30.17,South,181,0.0,0.0,0,0.00,,OVC160,0.02,VWS V13.01,2013-03-16 13:39:00,
2013-03-16 06:44:00,47.5,0.0,30.17,South,181,0.0,0.0,0,0.00,,OVC160,0.02,VWS V13.01,2013-03-16 13:44:00,
2013-03-16 06:49:00,47.5,0.0,30.17,South,181,0.0,0.0,0,0.00,,OVC160,0.02,VWS V13.01,2013-03-16 13:49:00,
2013-03-16 06:54:00,47.5,0.0,30.16,South,181,0.0,0.0,0,0.00,,OVC160,0.02,VWS V13.01,2013-03-16 13:54:00,
2013-03-16 06:59:00,47.5,0.0,30.17,South,181,0.0,0.0,0,0.00,,OVC160,0.02,VWS V13.01,2013-03-16 13:59:00,
2013-03-16 07:04:00,47.5,0.0,30.17,South,181,0.0,0.0,0,0.00,,OVC160,0.02,VWS V13.01,2013-03-16 14:04:00,
2013-03-16 07:09:00,47.5,0.0,30.18,South,181,0.0,0.0,0,0.00,,OVC160,0.02,VWS V13.01,2013-03-16 14:09:00,
2013-03-16 07:14:00,47.5,0.0,30.18,South,181,0.0,0.0,0,0.00,,OVC160,0.02,VWS V13.01,2013-03-16 14:14:00,
2013-03-16 07:19:00,47.6,0.0,30.18,South,181,0.0,0.0,0,0.00,,OVC160,0.02,VWS V13.01,2013-03-16 14:19:00,
2013-03-16 07:24:00,47.6,0.0,30.18,South,181,0.0,0.0,0,0.00,,OVC160,0.02,VWS V13.01,2013-03-16 14:24:00,
2013-03-16 07:29:00,47.6,0.0,30.18,South,181,0.0,0.0,0,0.00,,OVC160,0.02,VWS V13.01,2013-03-16 14:29:00,
2013-03-16 07:34:00,47.6,0.0,30.18,South,181,0.0,0.0,0,0.01,,OVC210,0.03,VWS V13.01,2013-03-16 14:34:00,
2013-03-16 07:39:00,47.6,0.0,30.18,South,181,0.0,0.0,0,0.01,,OVC210,0.03,VWS V13.01,2013-03-16 14:39:00,
2013-03-16 07:44:00,47.6,0.0,30.18,South,181,0.0,0.0,0,0.01,,OVC210,0.03,VWS V13.01,2013-03-16 14:44:00,
2013-03-16 07:49:00,47.7,0.0,30.18,South,181,0.0,0.0,0,0.01,,OVC210,0.03,VWS V13.01,2013-03-16 14:49:00,
2013-03-16 07:55:00,47.6,0.0,30.18,South,181,0.0,1.0,0,0.01,,OVC210,0.03,VWS V13.01,2013-03-16 14:55:00,
2013-03-16 08:00:00,47.6,0.0,30.19,South,181,1.0,1.0,0,0.01,,OVC210,0.03,VWS V13.01,2013-03-16 15:00:00,
2013-03-16 08:05:00,47.5,0.0,30.19,SSE,164,0.0,4.0,0,0.01,,OVC210,0.03,VWS V13.01,2013-03-16 15:05:00,
2013-03-16 08:10:00,47.5,0.0,30.19,SSE,164,0.0,4.0,0,0.01,,OVC210,0.03,VWS V13.01,2013-03-16 15:10:00,
2013-03-16 08:15:00,47.5,0.0,30.19,SSE,164,0.0,0.0,0,0.02,,OVC210,0.04,VWS V13.01,2013-03-16 15:15:00,
2013-03-16 08:20:00,47.5,0.0,30.19,SSE,164,0.0,0.0,0,0.02,,OVC210,0.04,VWS V13.01,2013-03-16 15:20:00,
2013-03-16 08:25:00,47.5,0.0,30.19,SSE,164,0.0,1.0,0,0.02,,OVC210,0.04,VWS V13.01,2013-03-16 15:25:00,
2013-03-16 08:30:00,47.6,0.0,30.19,SSE,164,0.0,0.0,0,0.02,,OVC210,0.04,VWS V13.01,2013-03-16 15:30:00,
2013-03-16 08:35:00,47.6,0.0,30.19,SSE,151,0.0,2.0,0,0.02,,OVC220,0.04,VWS V13.01,2013-03-16 15:35:00,
2013-03-16 08:40:00,47.6,0.0,30.19,SSE,151,1.0,2.0,0,0.02,,OVC220,0.04,VWS V13.01,2013-03-16 15:40:00,
2013-03-16 08:45:00,47.7,0.0,30.19,SSE,151,0.0,0.0,0,0.01,,OVC220,0.04,VWS V13.01,2013-03-16 15:45:00,
2013-03-16 08:50:00,47.8,0.0,30.19,SSE,151,0.0,1.0,0,0.01,,OVC220,0.04,VWS V13.01,2013-03-16 15:50:00,
2013-03-16 08:55:00,47.8,0.0,30.19,SSW,198,0.0,2.0,0,0.01,,OVC220,0.04,VWS V13.01,2013-03-16 15:55:00,
2013-03-16 09:00:00,47.8,0.0,30.19,SSE,164,0.0,0.0,0,0.01,,OVC220,0.04,VWS V13.01,2013-03-16 16:00:00,
2013-03-16 09:05:00,47.9,0.0,30.19,SSE,164,0.0,1.0,0,0.01,,OVC220,0.04,VWS V13.01,2013-03-16 16:05:00,
2013-03-16 09:10:00,47.9,0.0,30.20,SSE,165,0.0,2.0,0,0.01,,OVC220,0.04,VWS V13.01,2013-03-16 16:10:00,
2013-03-16 09:15:00,48.0,0.0,30.20,SSE,165,0.0,0.0,0,0.00,,OVC220,0.04,VWS V13.01,2013-03-16 16:15:00,
2013-03-16 09:20:00,48.1,0.0,30.20,SSE,165,0.0,0.0,0,0.01,,OVC220,0.05,VWS V13.01,2013-03-16 16:20:00,
2013-03-16 09:26:00,48.1,0.0,30.19,SSE,165,0.0,0.0,0,0.02,,OVC220,0.06,VWS V13.01,2013-03-16 16:26:00,
2013-03-16 09:31:00,48.0,0.0,30.19,SSE,165,0.0,0.0,0,0.02,,OVC220,0.06,VWS V13.01,2013-03-16 16:31:00,
2013-03-16 09:36:00,48.1,0.0,30.19,SSE,165,0.0,0.0,0,0.02,,OVC190,0.07,VWS V13.01,2013-03-16 16:36:00,
2013-03-16 09:41:00,48.1,0.0,30.20,SSE,165,0.0,0.0,0,0.03,,OVC190,0.07,VWS V13.01,2013-03-16 16:41:00,
2013-03-16 09:46:00,48.1,0.0,30.20,SSE,165,0.0,0.0,0,0.03,,OVC190,0.07,VWS V13.01,2013-03-16 16:46:00,
2013-03-16 09:51:00,48.1,0.0,30.20,SSE,165,0.0,0.0,0,0.03,,OVC190,0.07,VWS V13.01,2013-03-16 16:51:00,
2013-03-16 09:57:00,48.1,0.0,30.19,SSE,164,0.0,0.0,0,0.03,,OVC190,0.07,VWS V13.01,2013-03-16 16:57:00,
2013-03-16 10:01:00,48.3,0.0,30.19,South,184,0.0,1.0,0,0.03,,OVC190,0.07,VWS V13.01,2013-03-16 17:01:00,
2013-03-16 10:06:00,48.4,0.0,30.19,SSW,195,1.0,2.0,0,0.03,,OVC190,0.07,VWS V13.01,2013-03-16 17:06:00,
2013-03-16 10:12:00,48.3,0.0,30.19,SSW,198,0.0,2.0,0,0.03,,OVC190,0.07,VWS V13.01,2013-03-16 17:12:00,
2013-03-16 10:17:00,48.4,0.0,30.19,South,172,0.0,2.0,0,0.03,,OVC190,0.07,VWS V13.01,2013-03-16 17:17:00,
2013-03-16 10:22:00,48.6,0.0,30.18,South,175,0.0,2.0,0,0.03,,OVC190,0.07,VWS V13.01,2013-03-16 17:22:00,
2013-03-16 10:27:00,48.6,0.0,30.18,SSE,163,0.0,6.0,0,0.03,,OVC190,0.07,VWS V13.01,2013-03-16 17:27:00,
2013-03-16 10:32:00,48.7,0.0,30.19,SSE,163,0.0,0.0,0,0.01,,OVC130,0.07,VWS V13.01,2013-03-16 17:32:00,
2013-03-16 10:37:00,48.8,0.0,30.19,SSE,163,0.0,1.0,0,0.01,,OVC130,0.07,VWS V13.01,2013-03-16 17:37:00,
2013-03-16 10:42:00,48.8,0.0,30.19,ESE,119,0.0,2.0,0,0.01,,OVC050,0.07,VWS V13.01,2013-03-16 17:42:00,
2013-03-16 10:47:00,48.9,0.0,30.19,SE,124,0.0,0.0,0,0.00,,OVC050,0.07,VWS V13.01,2013-03-16 17:47:00,
2013-03-16 10:52:00,48.9,0.0,30.19,SE,124,0.0,0.0,0,0.00,,OVC050,0.07,VWS V13.01,2013-03-16 17:52:00,
2013-03-16 10:57:00,48.7,0.0,30.18,SE,124,0.0,1.0,0,0.00,,OVC050,0.07,VWS V13.01,2013-03-16 17:57:00,
2013-03-16 11:02:00,48.7,0.0,30.19,ESE,121,0.0,1.0,0,0.00,,OVC050,0.07,VWS V13.01,2013-03-16 18:02:00,
2013-03-16 11:07:00,48.8,0.0,30.19,ESE,121,0.0,1.0,0,0.00,,OVC050,0.07,VWS V13.01,2013-03-16 18:07:00,
2013-03-16 11:13:00,48.8,0.0,30.19,ESE,107,0.0,1.0,0,0.01,,OVC050,0.08,VWS V13.01,2013-03-16 18:13:00,
2013-03-16 11:18:00,48.8,0.0,30.19,ESE,107,0.0,1.0,0,0.01,,OVC050,0.08,VWS V13.01,2013-03-16 18:18:00,
2013-03-16 11:24:00,49.0,0.0,30.18,ESE,105,0.0,1.0,0,0.01,,OVC050,0.08,VWS V13.01,2013-03-16 18:24:00,
2013-03-16 11:29:00,49.1,0.0,30.18,East,92,0.0,1.0,0,0.01,,OVC050,0.08,VWS V13.01,2013-03-16 18:29:00,
2013-03-16 11:34:00,49.0,0.0,30.18,East,92,0.0,0.0,0,0.01,,OVC100,0.08,VWS V13.01,2013-03-16 18:34:00,
2013-03-16 11:39:00,49.1,0.0,30.17,East,92,0.0,0.0,0,0.01,,OVC100,0.08,VWS V13.01,2013-03-16 18:39:00,
2013-03-16 11:44:00,49.2,0.0,30.17,NNW,347,0.0,1.0,0,0.01,,OVC100,0.08,VWS V13.01,2013-03-16 18:44:00,
2013-03-16 11:49:00,49.5,0.0,30.17,NW,322,0.0,1.0,0,0.01,,OVC100,0.08,VWS V13.01,2013-03-16 18:49:00,
2013-03-16 11:54:00,49.4,0.0,30.17,South,190,0.0,3.0,0,0.01,,OVC100,0.08,VWS V13.01,2013-03-16 18:54:00,
2013-03-16 11:59:00,49.4,0.0,30.17,SSE,153,0.0,0.0,0,0.01,,OVC100,0.08,VWS V13.01,2013-03-16 18:59:00,
2013-03-16 12:04:00,49.4,0.0,30.17,SSE,168,0.0,1.0,0,0.01,,OVC100,0.08,VWS V13.01,2013-03-16 19:04:00,
2013-03-16 12:09:00,49.3,0.0,30.17,SSE,168,0.0,1.0,0,0.01,,OVC100,0.08,VWS V13.01,2013-03-16 19:09:00,
2013-03-16 12:14:00,49.4,0.0,30.17,SSE,168,0.0,0.0,0,0.02,,OVC100,0.09,VWS V13.01,2013-03-16 19:14:00,
2013-03-16 12:19:00,49.3,0.0,30.17,SSE,168,0.0,0.0,0,0.02,,OVC100,0.10,VWS V13.01,2013-03-16 19:19:00,
2013-03-16 12:24:00,49.4,0.0,30.17,SSE,168,0.0,0.0,0,0.02,,OVC100,0.10,VWS V13.01,2013-03-16 19:24:00,
2013-03-16 12:29:00,49.2,0.0,30.17,SSE,168,0.0,0.0,0,0.03,,OVC100,0.11,VWS V13.01,2013-03-16 19:29:00,
2013-03-16 12:35:00,49.2,0.0,30.17,SSE,168,0.0,0.0,0,0.04,,OVC090,0.12,VWS V13.01,2013-03-16 19:35:00,
2013-03-16 12:40:00,49.1,0.0,30.17,South,189,0.0,2.0,0,0.04,,OVC090,0.12,VWS V13.01,2013-03-16 19:40:00,
2013-03-16 12:45:00,48.9,0.0,30.17,SE,140,2.0,2.0,0,0.05,,OVC090,0.13,VWS V13.01,2013-03-16 19:45:00,
2013-03-16 12:50:00,48.8,0.0,30.17,SSW,210,1.0,2.0,0,0.06,,OVC090,0.14,VWS V13.01,2013-03-16 19:50:00,
2013-03-16 12:55:00,48.7,0.0,30.17,SE,134,2.0,3.0,0,0.06,,OVC090,0.14,VWS V13.01,2013-03-16 19:55:00,
2013-03-16 13:00:00,48.6,0.0,30.16,NE,48,0.0,4.0,0,0.07,,OVC090,0.15,VWS V13.01,2013-03-16 20:00:00,
2013-03-16 13:05:00,48.5,0.0,30.16,SSE,159,1.0,4.0,0,0.08,,OVC090,0.16,VWS V13.01,2013-03-16 20:05:00,
2013-03-16 13:10:00,48.5,0.0,30.16,South,180,0.0,4.0,0,0.08,,OVC090,0.16,VWS V13.01,2013-03-16 20:10:00,
2013-03-16 13:15:00,48.4,0.0,30.16,SE,126,0.0,2.0,0,0.08,,OVC090,0.17,VWS V13.01,2013-03-16 20:15:00,
2013-03-16 13:20:00,48.3,0.0,30.16,East,86,0.0,4.0,0,0.08,,OVC090,0.17,VWS V13.01,2013-03-16 20:20:00,
2013-03-16 13:25:00,48.2,0.0,30.16,North,360,1.0,4.0,0,0.08,,OVC090,0.17,VWS V13.01,2013-03-16 20:25:00,
2013-03-16 13:30:00,48.2,0.0,30.16,SSE,156,2.0,3.0,0,0.07,,OVC090,0.18,VWS V13.01,2013-03-16 20:30:00,
2013-03-16 13:36:00,48.3,0.0,30.16,SSE,154,3.0,5.0,0,0.07,,-RA,0.18,VWS V13.01,2013-03-16 20:36:00,
2013-03-16 13:41:00,48.3,0.0,30.16,SW,232,2.0,5.0,0,0.07,,-RA,0.18,VWS V13.01,2013-03-16 20:41:00,
2013-03-16 13:46:00,48.4,0.0,30.16,SW,216,0.0,2.0,0,0.05,,-RA,0.19,VWS V13.01,2013-03-16 20:46:00,
2013-03-16 13:51:00,48.4,0.0,30.16,SE,130,4.0,4.0,0,0.07,,-RA,0.20,VWS V13.01,2013-03-16 20:51:00,
2013-03-16 13:57:00,48.3,0.0,30.15,SE,146,3.0,6.0,0,0.07,,-RA,0.20,VWS V13.01,2013-03-16 20:57:00,
2013-03-16 14:02:00,48.4,0.0,30.15,NE,40,2.0,3.0,0,0.05,,-RA,0.20,VWS V13.01,2013-03-16 21:02:00,
2013-03-16 14:07:00,48.4,0.0,30.15,SSW,192,1.0,6.0,0,0.05,,-RA,0.20,VWS V13.01,2013-03-16 21:07:00,
2013-03-16 14:12:00,48.3,0.0,30.15,SE,144,0.0,6.0,0,0.05,,-RA,0.20,VWS V13.01,2013-03-16 21:12:00,
2013-03-16 14:17:00,48.1,0.0,30.14,SSE,153,2.0,11.0,0,0.03,,-RA,0.20,VWS V13.01,2013-03-16 21:17:00,
2013-03-16 14:22:00,48.1,0.0,30.14,SSW,204,0.0,11.0,0,0.03,,-RA,0.20,VWS V13.01,2013-03-16 21:22:00,
2013-03-16 14:27:00,48.1,0.0,30.14,SSW,211,2.0,11.0,0,0.04,,-RA,0.21,VWS V13.01,2013-03-16 21:27:00,
2013-03-16 14:32:00,48.1,0.0,30.14,South,184,0.0,4.0,0,0.04,,-RA,0.21,VWS V13.01,2013-03-16 21:32:00,
2013-03-16 14:37:00,48.1,0.0,30.14,South,175,5.0,5.0,0,0.05,,-RA,0.22,VWS V13.01,2013-03-16 21:37:00,
2013-03-16 14:42:00,48.0,0.0,30.14,South,171,2.0,7.0,0,0.06,,-RA,0.23,VWS V13.01,2013-03-16 21:42:00,
2013-03-16 14:47:00,48.1,0.0,30.14,SE,140,4.0,4.0,0,0.05,,-RA,0.23,VWS V13.01,2013-03-16 21:47:00,
2013-03-16 14:52:00,48.0,0.0,30.13,South,180,1.0,7.0,0,0.05,,-RA,0.23,VWS V13.01,2013-03-16 21:52:00,
2013-03-16 14:57:00,47.9,0.0,30.13,ESE,123,2.0,10.0,0,0.06,,-RA,0.24,VWS V13.01,2013-03-16 21:57:00,
2013-03-16 15:03:00,48.0,0.0,30.13,SSE,153,2.0,9.0,0,0.04,,-RA,0.24,VWS V13.01,2013-03-16 22:03:00,
2013-03-16 15:08:00,48.2,0.0,30.12,South,170,5.0,9.0,0,0.04,,-RA,0.24,VWS V13.01,2013-03-16 22:08:00,
2013-03-16 15:13:00,48.2,0.0,30.12,South,173,4.0,9.0,0,0.04,,-RA,0.24,VWS V13.01,2013-03-16 22:13:00,
2013-03-16 15:18:00,48.2,0.0,30.12,NNW,337,1.0,5.0,0,0.05,,-RA,0.25,VWS V13.01,2013-03-16 22:18:00,
2013-03-16 15:23:00,48.2,0.0,30.11,East,97,6.0,7.0,0,0.06,,-RA,0.26,VWS V13.01,2013-03-16 22:23:00,
2013-03-16 15:28:00,48.2,0.0,30.11,NW,304,2.0,10.0,0,0.06,,-RA,0.26,VWS V13.01,2013-03-16 22:28:00,
2013-03-16 15:33:00,48.2,0.0,30.11,SSE,164,4.0,9.0,0,0.05,,-RA,0.26,VWS V13.01,2013-03-16 22:33:00,
2013-03-16 15:38:00,48.2,0.0,30.11,South,186,1.0,9.0,0,0.06,,-RA,0.27,VWS V13.01,2013-03-16 22:38:00,
2013-03-16 15:43:00,48.2,0.0,30.11,ESE,103,0.0,9.0,0,0.07,,OVC043,0.28,VWS V13.01,2013-03-16 22:43:00,
2013-03-16 15:48:00,48.2,0.0,30.11,South,180,3.0,4.0,0,0.06,,OVC043,0.29,VWS V13.01,2013-03-16 22:48:00,
2013-03-16 15:53:00,48.2,0.0,30.11,WSW,254,0.0,5.0,0,0.07,,OVC043,0.30,VWS V13.01,2013-03-16 22:53:00,
2013-03-16 15:58:00,48.1,0.0,30.11,SE,134,2.0,5.0,0,0.08,,OVC043,0.32,VWS V13.01,2013-03-16 22:58:00,
2013-03-16 16:03:00,48.1,0.0,30.10,SSW,196,4.0,7.0,0,0.09,,OVC043,0.33,VWS V13.01,2013-03-16 23:03:00,
2013-03-16 16:08:00,48.1,0.0,30.10,SSE,164,1.0,7.0,0,0.10,,OVC043,0.34,VWS V13.01,2013-03-16 23:08:00,
2013-03-16 16:14:00,48.1,0.0,30.11,South,190,1.0,7.0,0,0.11,,OVC043,0.36,VWS V13.01,2013-03-16 23:14:00,
2013-03-16 16:19:00,48.2,0.0,30.11,SSE,147,0.0,9.0,0,0.12,,OVC043,0.36,VWS V13.01,2013-03-16 23:19:00,
2013-03-16 16:24:00,48.3,0.0,30.11,SE,132,4.0,9.0,0,0.12,,OVC043,0.37,VWS V13.01,2013-03-16 23:24:00,
2013-03-16 16:29:00,48.3,0.0,30.11,ESE,107,0.0,9.0,0,0.13,,OVC043,0.37,VWS V13.01,2013-03-16 23:29:00,
2013-03-16 16:34:00,48.3,0.0,30.10,SE,145,4.0,6.0,0,0.11,,-RA,0.37,VWS V13.01,2013-03-16 23:34:00,
2013-03-16 16:39:00,48.2,0.0,30.10,SSW,206,0.0,6.0,0,0.12,,-RA,0.38,VWS V13.01,2013-03-16 23:39:00,
2013-03-16 16:44:00,48.2,0.0,30.10,SSW,206,0.0,0.0,0,0.14,,-RA,0.40,VWS V13.01,2013-03-16 23:44:00,
2013-03-16 16:49:00,48.2,0.0,30.10,SSW,196,1.0,6.0,0,0.13,,-RA,0.41,VWS V13.01,2013-03-16 23:49:00,
2013-03-16 16:54:00,48.3,0.0,30.10,SSW,203,2.0,6.0,0,0.14,,-RA,0.43,VWS V13.01,2013-03-16 23:54:00,
2013-03-16 16:59:00,48.2,0.0,30.10,WSW,238,1.0,1.0,0,0.15,,-RA,0.43,VWS V13.01,2013-03-16 23:59:00,
2013-03-16 17:04:00,48.1,0.0,30.10,ESE,102,0.0,10.0,0,0.11,,-RA,0.43,VWS V13.01,2013-03-17 00:04:00,
2013-03-16 17:09:00,48.2,0.0,30.10,SE,131,2.0,10.0,0,0.14,,-RA,0.46,VWS V13.01,2013-03-17 00:09:00,
2013-03-16 17:14:00,48.2,0.0,30.10,WSW,250,2.0,2.0,0,0.17,,-RA,0.50,VWS V13.01,2013-03-17 00:14:00,
2013-03-16 17:19:00,48.0,0.0,30.10,SSE,150,1.0,10.0,0,0.18,,-RA,0.54,VWS V13.01,2013-03-17 00:19:00,
2013-03-16 17:24:00,48.1,0.0,30.10,SW,236,2.0,10.0,0,0.19,,-RA,0.55,VWS V13.01,2013-03-17 00:24:00,
2013-03-16 17:29:00,48.1,0.0,30.10,SSW,198,2.0,3.0,0,0.20,,-RA,0.56,VWS V13.01,2013-03-17 00:29:00,
2013-03-16 17:35:00,48.1,0.0,30.11,SSW,196,4.0,5.0,0,0.24,,-RA,0.62,VWS V13.01,2013-03-17 00:35:00,
2013-03-16 17:40:00,47.8,0.0,30.10,WSW,252,1.0,9.0,0,0.27,,-RA,0.64,VWS V13.01,2013-03-17 00:40:00,
2013-03-16 17:45:00,47.7,0.0,30.11,North,351,0.0,1.0,0,0.28,,-RA,0.65,VWS V13.01,2013-03-17 00:45:00,
2013-03-16 17:50:00,47.7,0.0,30.10,ENE,62,1.0,4.0,0,0.26,,-RA,0.66,VWS V13.01,2013-03-17 00:50:00,
2013-03-16 17:55:00,47.5,0.0,30.11,ENE,67,2.0,4.0,0,0.28,,-RA,0.69,VWS V13.01,2013-03-17 00:55:00,
2013-03-16 18:00:00,47.2,0.0,30.12,NE,45,2.0,4.0,0,0.27,,-RA,0.70,VWS V13.01,2013-03-17 01:00:00,
2013-03-16 18:05:00,47.0,0.0,30.12,SSW,202,0.0,4.0,0,0.27,,-RA,0.70,VWS V13.01,2013-03-17 01:05:00,
2013-03-16 18:10:00,46.8,0.0,30.12,ENE,63,1.0,5.0,0,0.28,,-RA,0.71,VWS V13.01,2013-03-17 01:10:00,
2013-03-16 18:15:00,46.7,0.0,30.12,South,185,0.0,2.0,0,0.22,,-RA,0.71,VWS V13.01,2013-03-17 01:15:00,
2013-03-16 18:20:00,46.5,0.0,30.12,South,185,0.0,2.0,0,0.22,,-RA,0.71,VWS V13.01,2013-03-17 01:20:00,
2013-03-16 18:25:00,46.4,0.0,30.12,South,185,0.0,2.0,0,0.22,,-RA,0.71,VWS V13.01,2013-03-17 01:25:00,
2013-03-16 18:30:00,46.3,0.0,30.12,SE,140,0.0,0.0,0,0.15,,-RA,0.71,VWS V13.01,2013-03-17 01:30:00,
2013-03-16 18:35:00,46.2,0.0,30.13,SE,140,0.0,0.0,0,0.16,,BKN029,0.72,VWS V13.01,2013-03-17 01:35:00,
2013-03-16 18:40:00,46.0,0.0,30.13,East,81,4.0,6.0,0,0.16,,BKN029,0.72,VWS V13.01,2013-03-17 01:40:00,
2013-03-16 18:46:00,45.9,0.0,30.13,ESE,103,0.0,1.0,0,0.07,,BKN029,0.72,VWS V13.01,2013-03-17 01:46:00,
2013-03-16 18:51:00,45.8,0.0,30.13,East,90,0.0,1.0,0,0.07,,BKN029,0.72,VWS V13.01,2013-03-17 01:51:00,
2013-03-16 18:56:00,45.7,0.0,30.14,East,90,0.0,1.0,0,0.07,,BKN029,0.72,VWS V13.01,2013-03-17 01:56:00,
2013-03-16 19:01:00,45.6,0.0,30.14,East,90,1.0,2.0,0,0.02,,BKN029,0.72,VWS V13.01,2013-03-17 02:01:00,
2013-03-16 19:06:00,45.3,0.0,30.14,East,90,0.0,2.0,0,0.02,,BKN029,0.72,VWS V13.01,2013-03-17 02:06:00,
2013-03-16 19:11:00,45.0,0.0,30.14,SE,126,0.0,3.0,0,0.02,,BKN029,0.72,VWS V13.01,2013-03-17 02:11:00,
2013-03-16 19:17:00,44.8,0.0,30.13,SE,126,0.0,0.0,0,0.01,,BKN029,0.72,VWS V13.01,2013-03-17 02:17:00,
2013-03-16 19:22:00,44.7,0.0,30.13,SE,126,0.0,1.0,0,0.01,,BKN029,0.72,VWS V13.01,2013-03-17 02:22:00,
2013-03-16 19:27:00,44.6,0.0,30.14,SE,126,0.0,1.0,0,0.01,,BKN029,0.72,VWS V13.01,2013-03-17 02:27:00,
2013-03-16 19:32:00,44.5,0.0,30.14,SE,126,0.0,0.0,0,0.02,,BKN050,0.73,VWS V13.01,2013-03-17 02:32:00,
2013-03-16 19:37:00,44.2,0.0,30.14,SE,126,0.0,1.0,0,0.02,,BKN050,0.73,VWS V13.01,2013-03-17 02:37:00,
2013-03-16 19:43:00,44.1,0.0,30.14,SE,126,0.0,1.0,0,0.02,,BKN050,0.73,VWS V13.01,2013-03-17 02:43:00,
2013-03-16 19:48:00,43.9,0.0,30.14,SE,126,0.0,0.0,0,0.01,,BKN050,0.73,VWS V13.01,2013-03-17 02:48:00,
2013-03-16 19:53:00,43.8,0.0,30.14,SE,126,0.0,0.0,0,0.01,,BKN050,0.73,VWS V13.01,2013-03-17 02:53:00,
2013-03-16 19:58:00,43.7,0.0,30.14,SE,126,0.0,0.0,0,0.01,,BKN050,0.73,VWS V13.01,2013-03-17 02:58:00,
2013-03-16 20:03:00,43.7,0.0,30.14,SE,126,1.0,2.0,0,0.01,,BKN050,0.73,VWS V13.01,2013-03-17 03:03:00,
2013-03-16 20:08:00,43.7,0.0,30.15,SE,126,0.0,2.0,0,0.02,,BKN050,0.74,VWS V13.01,2013-03-17 03:08:00,
2013-03-16 20:13:00,43.7,0.0,30.15,SE,126,0.0,2.0,0,0.02,,BKN050,0.74,VWS V13.01,2013-03-17 03:13:00,
2013-03-16 20:18:00,43.6,0.0,30.15,ENE,67,0.0,1.0,0,0.02,,BKN050,0.74,VWS V13.01,2013-03-17 03:18:00,
2013-03-16 20:23:00,43.6,0.0,30.15,SE,134,0.0,1.0,0,0.02,,BKN050,0.74,VWS V13.01,2013-03-17 03:23:00,
2013-03-16 20:28:00,43.6,0.0,30.14,SE,134,0.0,1.0,0,0.02,,BKN050,0.74,VWS V13.01,2013-03-17 03:28:00,
2013-03-16 20:33:00,43.6,0.0,30.14,SE,134,0.0,0.0,0,0.02,,BKN070,0.74,VWS V13.01,2013-03-17 03:33:00,
2013-03-16 20:38:00,43.6,0.0,30.15,SE,134,0.0,0.0,0,0.02,,BKN070,0.74,VWS V13.01,2013-03-17 03:38:00,
2013-03-16 20:43:00,43.6,0.0,30.16,SE,134,0.0,0.0,0,0.02,,BKN070,0.74,VWS V13.01,2013-03-17 03:43:00,
2013-03-16 20:48:00,43.6,0.0,30.17,SE,135,0.0,1.0,0,0.01,,BKN070,0.74,VWS V13.01,2013-03-17 03:48:00,
2013-03-16 20:53:00,43.6,0.0,30.17,SE,134,0.0,1.0,0,0.01,,BKN070,0.74,VWS V13.01,2013-03-17 03:53:00,
2013-03-16 20:59:00,43.6,0.0,30.17,SE,134,0.0,1.0,0,0.01,,BKN070,0.74,VWS V13.01,2013-03-17 03:59:00,
2013-03-16 21:00:00,43.6,0.0,30.17,SE,134,0.0,0.0,0,0.01,,BKN070,0.74,VWS V13.01,2013-03-17 04:00:00,
2013-03-16 21:01:00,43.6,0.0,30.17,SE,134,0.0,0.0,0,0.01,,BKN070,0.74,VWS V13.01,2013-03-17 04:01:00,
2013-03-16 21:07:00,43.6,0.0,30.17,NE,46,0.0,2.0,0,0.01,,BKN070,0.74,VWS V13.01,2013-03-17 04:07:00,
2013-03-16 21:12:00,43.6,0.0,30.17,NE,46,0.0,2.0,0,0.02,,BKN070,0.75,VWS V13.01,2013-03-17 04:12:00,
2013-03-16 21:17:00,43.6,0.0,30.18,NE,46,0.0,0.0,0,0.01,,BKN070,0.75,VWS V13.01,2013-03-17 04:17:00,
2013-03-16 21:22:00,43.6,0.0,30.18,NE,46,0.0,0.0,0,0.01,,BKN070,0.75,VWS V13.01,2013-03-17 04:22:00,
2013-03-16 21:27:00,43.5,0.0,30.18,NE,46,0.0,1.0,0,0.01,,BKN070,0.75,VWS V13.01,2013-03-17 04:27:00,
2013-03-16 21:32:00,43.5,0.0,30.19,NE,46,0.0,0.0,0,0.01,,BKN090,0.75,VWS V13.01,2013-03-17 04:32:00,
2013-03-16 21:37:00,43.5,0.0,30.19,NE,46,0.0,0.0,0,0.01,,BKN090,0.76,VWS V13.01,2013-03-17 04:37:00,
2013-03-16 21:42:00,43.4,0.0,30.19,NE,46,0.0,1.0,0,0.02,,BKN090,0.76,VWS V13.01,2013-03-17 04:42:00,
2013-03-16 21:47:00,43.3,0.0,30.19,South,189,0.0,2.0,0,0.03,,BKN090,0.77,VWS V13.01,2013-03-17 04:47:00,
2013-03-16 21:53:00,43.3,0.0,30.19,South,190,0.0,2.0,0,0.04,,BKN090,0.78,VWS V13.01,2013-03-17 04:53:00,
2013-03-16 21:58:00,43.2,0.0,30.20,South,190,0.0,2.0,0,0.04,,BKN090,0.78,VWS V13.01,2013-03-17 04:58:00,
2013-03-16 22:03:00,43.1,0.0,30.20,South,190,0.0,0.0,0,0.04,,BKN090,0.78,VWS V13.01,2013-03-17 05:03:00,
2013-03-16 22:08:00,43.0,0.0,30.20,South,190,0.0,0.0,0,0.04,,BKN090,0.78,VWS V13.01,2013-03-17 05:08:00,
2013-03-16 22:13:00,43.0,0.0,30.21,South,189,0.0,0.0,0,0.05,,BKN090,0.79,VWS V13.01,2013-03-17 05:13:00,
2013-03-16 22:18:00,42.9,0.0,30.21,SE,126,0.0,2.0,0,0.04,,BKN090,0.79,VWS V13.01,2013-03-17 05:18:00,
2013-03-16 22:23:00,42.9,0.0,30.21,SE,126,0.0,2.0,0,0.05,,BKN090,0.80,VWS V13.01,2013-03-17 05:23:00,
2013-03-16 22:28:00,42.8,0.0,30.21,South,174,0.0,2.0,0,0.05,,BKN090,0.80,VWS V13.01,2013-03-17 05:28:00,
2013-03-16 22:33:00,42.7,0.0,30.21,SSW,201,0.0,3.0,0,0.05,,BKN090,0.80,VWS V13.01,2013-03-17 05:33:00,
2013-03-16 22:38:00,42.6,0.0,30.21,SSW,200,0.0,3.0,0,0.05,,BKN090,0.80,VWS V13.01,2013-03-17 05:38:00,
2013-03-16 22:43:00,42.6,0.0,30.21,SSW,200,0.0,3.0,0,0.05,,OVC041,0.80,VWS V13.01,2013-03-17 05:43:00,
2013-03-16 22:48:00,42.6,0.0,30.21,SSW,200,1.0,1.0,0,0.04,,OVC041,0.80,VWS V13.01,2013-03-17 05:48:00,
2013-03-16 22:53:00,42.5,0.0,30.21,SSE,161,0.0,2.0,0,0.04,,OVC047,0.80,VWS V13.01,2013-03-17 05:53:00,
2013-03-16 22:58:00,42.4,0.0,30.21,SSE,161,0.0,2.0,0,0.04,,OVC047,0.80,VWS V13.01,2013-03-17 05:58:00,
2013-03-16 23:03:00,42.4,0.0,30.22,SE,136,0.0,4.0,0,0.02,,OVC047,0.80,VWS V13.01,2013-03-17 06:03:00,
2013-03-16 23:08:00,42.2,0.0,30.22,South,181,4.0,11.0,0,0.02,,OVC047,0.80,VWS V13.01,2013-03-17 06:08:00,
2013-03-16 23:13:00,42.3,0.0,30.22,SSW,202,0.0,11.0,0,0.03,,OVC047,0.81,VWS V13.01,2013-03-17 06:13:00,
2013-03-16 23:18:00,42.2,0.0,30.23,SSW,202,0.0,1.0,0,0.02,,OVC047,0.81,VWS V13.01,2013-03-17 06:18:00,
2013-03-16 23:23:00,42.1,0.0,30.23,SSW,202,0.0,1.0,0,0.02,,OVC047,0.81,VWS V13.01,2013-03-17 06:23:00,
2013-03-16 23:28:00,41.9,0.0,30.24,SSW,202,0.0,1.0,0,0.02,,OVC047,0.81,VWS V13.01,2013-03-17 06:28:00,
2013-03-16 23:33:00,41.8,0.0,30.23,SSW,202,0.0,1.0,0,0.01,,OVC070,0.81,VWS V13.01,2013-03-17 06:33:00,
2013-03-16 23:38:00,41.6,0.0,30.23,SSW,202,0.0,1.0,0,0.01,,OVC070,0.81,VWS V13.01,2013-03-17 06:38:00,
2013-03-16 23:43:00,41.5,0.0,30.23,SSW,202,0.0,1.0,0,0.01,,OVC070,0.81,VWS V13.01,2013-03-17 06:43:00,
2013-03-16 23:48:00,41.4,0.0,30.23,SSW,202,0.0,0.0,0,0.01,,OVC070,0.81,VWS V13.01,2013-03-17 06:48:00,
2013-03-16 23:53:00,41.3,0.0,30.23,SSW,202,0.0,0.0,0,0.01,,OVC070,0.81,VWS V13.01,2013-03-17 06:53:00,
2013-03-16 23:58:00,41.1,0.0,30.23,SSW,202,0.0,2.0,0,0.01,,OVC070,0.81,VWS V13.01,2013-03-17 06:58:00,